Estación Meteorológica Peña el Pijo (Robertgarden) [ 07/11/20 22:41:19 CEST ]

Fecha Hora Presion(HPa) Temp (°C) Humedad % Rocio (°C) Viento ( m/s) Direccion Lluvia 1Hora(mm) Lluvia 24H(mm) LLuvia Total(mm)
2020-May-05 01:09:13 1008.600 - - - - W     39.88
2020-May-05 02:08:34 1008.300 - - - - W     39.88
2020-May-05 03:09:06 1007.800 - - - - W     39.88
2020-May-05 04:09:00 1007.200 - - - - W     39.88
2020-May-05 05:09:14 1007.100 - - - - W     39.88
2020-May-05 06:09:22 1006.900 - - - - W     39.88
2020-May-05 07:09:43 1007.300 - - - - W     39.88
2020-May-05 08:10:31 1007.800 - - - - W     39.88
2020-May-05 09:10:33 1008.000 - - - - W     39.88
2020-May-05 10:09:43 1007.500 - - - - W     39.88
2020-May-05 11:09:11 1007.400 - - - - W     39.88
2020-May-05 12:09:14 1007.300 - - - - W     39.88
2020-May-05 13:08:57 1007.100 - - - - W     39.88
2020-May-05 14:09:00 1007.200 - - - - W     39.88
2020-May-05 15:09:02 1006.900 - - - - W     39.88
2020-May-05 16:09:13 1006.900 - - - - W     39.88
2020-May-05 17:09:24 1006.700 - - - - W     39.88
2020-May-05 18:09:05 1006.800 - - - - W     39.88
2020-May-05 19:09:04 1006.700 - - - - W     39.88
2020-May-05 20:09:29 1007.600 - - - - W     39.88
2020-May-05 21:09:24 1008.100 - - - - W     39.88
2020-May-05 22:09:33 1008.700 - - - - W     39.88
2020-May-05 23:09:22 1009.200 - - - - W     39.88

Temperatura Máxima:    Temperatura Mínima:
Presión Máxima:1009.200 Hpa    Presión Mínima:1006.700 Hpa


Volver